Time,TemperatureF,DewpointF,PressureIn,WindDirection,WindDirectionDegrees,WindSpeedMPH,WindSpeedGustMPH,Humidity,HourlyPrecipIn,Conditions,Clouds,dailyrainin,SoftwareType,DateUTC
2013-03-04 00:01:00,30.0,24.0,-100.00,SSE,158,21.0,26.0,77,0.00,,,-99.99,,2013-03-04 07:01:00,
2013-03-04 00:11:00,-999.0,-99.9,-100.00,SSE,160,21.0,27.0,-999,-99.99,,,-99.99,,2013-03-04 07:11:00,
2013-03-04 00:21:00,30.0,23.0,-100.00,SSE,164,22.0,31.0,76,0.00,,,-99.99,,2013-03-04 07:21:00,
2013-03-04 00:32:00,30.0,23.0,-100.00,SSE,164,24.0,29.0,76,0.00,,,-99.99,,2013-03-04 07:32:00,
2013-03-04 00:51:00,29.0,22.0,-100.00,South,169,23.0,29.0,75,0.00,,,-99.99,,2013-03-04 07:51:00,
2013-03-04 01:01:00,29.0,23.0,-100.00,South,172,22.0,29.0,78,0.00,,,-99.99,,2013-03-04 08:01:00,
2013-03-04 01:11:00,30.0,22.0,-100.00,SSE,165,26.0,38.0,72,0.00,,,-99.99,,2013-03-04 08:11:00,
2013-03-04 01:21:00,29.0,22.0,-100.00,SSE,168,29.0,34.0,72,-99.99,,,-99.99,,2013-03-04 08:21:00,
2013-03-04 01:31:00,29.0,23.0,-100.00,SSE,168,27.0,32.0,76,0.00,,,-99.99,,2013-03-04 08:31:00,
2013-03-04 01:41:00,29.0,22.0,-100.00,SSE,164,27.0,34.0,76,0.00,,,-99.99,,2013-03-04 08:41:00,
2013-03-04 01:52:00,29.0,22.0,-100.00,SSE,161,27.0,33.0,77,0.00,,,-99.99,,2013-03-04 08:52:00,
2013-03-04 02:02:00,-999.0,-99.9,-100.00,SSE,164,24.0,29.0,-999,-99.99,,,-99.99,,2013-03-04 09:02:00,
2013-03-04 02:11:00,28.0,22.0,-100.00,SSE,165,24.0,29.0,78,0.00,,,-99.99,,2013-03-04 09:11:00,
2013-03-04 02:21:00,29.0,23.0,-100.00,SSE,167,24.0,32.0,79,0.00,,,-99.99,,2013-03-04 09:21:00,
2013-03-04 02:32:00,28.0,23.0,-100.00,SSE,167,22.0,29.0,80,0.00,,,-99.99,,2013-03-04 09:32:00,
2013-03-04 02:42:00,28.0,23.0,-100.00,SSE,165,24.0,35.0,79,0.00,,,-99.99,,2013-03-04 09:42:00,
2013-03-04 02:51:00,28.0,23.0,-100.00,SSE,162,28.0,37.0,81,0.00,,,-99.99,,2013-03-04 09:51:00,
2013-03-04 03:01:00,27.0,23.0,-100.00,SSE,167,26.0,31.0,82,0.00,,,-99.99,,2013-03-04 10:01:00,
2013-03-04 03:11:00,27.0,22.0,-100.00,SSE,162,26.0,32.0,79,0.00,,,-99.99,,2013-03-04 10:11:00,
2013-03-04 03:21:00,28.0,22.0,-100.00,SSE,165,24.0,30.0,78,0.00,,,-99.99,,2013-03-04 10:21:00,
2013-03-04 03:31:00,27.0,22.0,-100.00,SSE,162,26.0,34.0,79,0.00,,,-99.99,,2013-03-04 10:31:00,
2013-03-04 03:42:00,27.0,20.0,-100.00,SSE,165,26.0,32.0,76,0.00,,,-99.99,,2013-03-04 10:42:00,
2013-03-04 03:52:00,27.0,20.0,-100.00,SSE,168,21.0,26.0,77,0.00,,,-99.99,,2013-03-04 10:52:00,
2013-03-04 04:02:00,-999.0,-99.9,-100.00,SSE,165,24.0,28.0,-999,-99.99,,,-99.99,,2013-03-04 11:02:00,
2013-03-04 04:11:00,27.0,20.0,-100.00,SSE,168,22.0,30.0,74,0.00,,,-99.99,,2013-03-04 11:11:00,
2013-03-04 04:21:00,26.0,20.0,-100.00,SSE,168,23.0,27.0,75,0.00,,,-99.99,,2013-03-04 11:21:00,
2013-03-04 04:31:00,26.0,20.0,-100.00,South,172,21.0,26.0,77,0.00,,,-99.99,,2013-03-04 11:31:00,
2013-03-04 04:42:00,26.0,20.0,-100.00,South,174,17.0,22.0,77,0.00,,,-99.99,,2013-03-04 11:42:00,
2013-03-04 04:52:00,26.0,20.0,-100.00,South,176,17.0,22.0,79,0.00,,,-99.99,,2013-03-04 11:52:00,
2013-03-04 05:01:00,26.0,21.0,-100.00,South,178,16.0,19.0,80,0.00,,,-99.99,,2013-03-04 12:01:00,
2013-03-04 05:11:00,26.0,21.0,-100.00,South,178,15.0,21.0,81,-99.99,,,-99.99,,2013-03-04 12:11:00,
2013-03-04 05:22:00,26.0,21.0,-100.00,South,178,16.0,20.0,81,0.00,,,-99.99,,2013-03-04 12:22:00,
2013-03-04 05:32:00,26.0,21.0,-100.00,South,179,15.0,20.0,82,0.00,,,-99.99,,2013-03-04 12:32:00,
2013-03-04 05:42:00,26.0,21.0,-100.00,South,176,15.0,21.0,82,0.00,,,-99.99,,2013-03-04 12:42:00,
2013-03-04 05:52:00,26.0,22.0,-100.00,South,175,19.0,24.0,84,0.00,,,-99.99,,2013-03-04 12:52:00,
2013-03-04 06:02:00,26.0,22.0,-100.00,South,175,24.0,28.0,86,0.01,,,-99.99,,2013-03-04 13:02:00,
2013-03-04 06:11:00,26.0,22.0,-100.00,South,176,24.0,28.0,87,0.01,,,-99.99,,2013-03-04 13:11:00,
2013-03-04 06:21:00,25.0,23.0,-100.00,SSW,193,17.0,22.0,89,0.00,,,-99.99,,2013-03-04 13:21:00,
2013-03-04 06:32:00,25.0,23.0,-100.00,SSW,200,17.0,23.0,92,0.00,,,-99.99,,2013-03-04 13:32:00,
2013-03-04 06:41:00,25.0,20.0,-100.00,South,184,22.0,33.0,79,0.00,,,-99.99,,2013-03-04 13:41:00,
2013-03-04 06:51:00,26.0,18.0,-100.00,South,186,22.0,35.0,73,0.00,,,-99.99,,2013-03-04 13:51:00,
2013-03-04 07:01:00,25.0,18.0,-100.00,South,182,24.0,32.0,77,0.00,,,-99.99,,2013-03-04 14:01:00,
2013-03-04 07:11:00,25.0,18.0,-100.00,South,182,24.0,31.0,74,0.00,,,-99.99,,2013-03-04 14:11:00,
2013-03-04 07:22:00,24.0,20.0,-100.00,South,174,24.0,32.0,85,0.00,,,-99.99,,2013-03-04 14:22:00,
2013-03-04 07:32:00,22.0,21.0,-100.00,SSW,195,22.0,27.0,94,0.10,,,-99.99,,2013-03-04 14:32:00,
2013-03-04 07:42:00,22.0,20.0,-100.00,SSW,192,24.0,30.0,89,0.03,,,-99.99,,2013-03-04 14:42:00,
2013-03-04 07:52:00,22.0,18.0,-100.00,South,186,24.0,34.0,86,0.00,,,-99.99,,2013-03-04 14:52:00,
2013-03-04 08:01:00,22.0,15.0,-100.00,South,185,23.0,31.0,73,0.00,,,-99.99,,2013-03-04 15:01:00,
2013-03-04 08:11:00,22.0,13.0,-100.00,South,186,23.0,31.0,68,0.00,,,-99.99,,2013-03-04 15:11:00,
2013-03-04 08:22:00,-999.0,-99.9,-100.00,SSW,199,17.0,24.0,-999,-99.99,,,-99.99,,2013-03-04 15:22:00,
2013-03-04 08:32:00,22.0,16.0,-100.00,SSW,209,18.0,23.0,79,0.00,,,-99.99,,2013-03-04 15:32:00,
2013-03-04 08:42:00,20.0,17.0,-100.00,SW,217,18.0,25.0,86,0.00,,,-99.99,,2013-03-04 15:42:00,
2013-03-04 08:51:00,20.0,17.0,-100.00,SW,219,15.0,23.0,90,0.00,,,-99.99,,2013-03-04 15:51:00,
2013-03-04 09:02:00,19.0,17.0,-100.00,SSW,212,13.0,17.0,91,0.01,,,-99.99,,2013-03-04 16:02:00,
2013-03-04 09:11:00,19.0,17.0,-100.00,SSW,210,14.0,18.0,92,0.01,,,-99.99,,2013-03-04 16:11:00,
2013-03-04 09:21:00,18.0,16.0,-100.00,WSW,244,9.0,16.0,92,0.01,,,-99.99,,2013-03-04 16:21:00,
2013-03-04 09:31:00,17.0,16.0,-100.00,WNW,284,11.0,14.0,93,0.01,,,-99.99,,2013-03-04 16:31:00,
2013-03-04 09:42:00,17.0,16.0,-100.00,West,267,11.0,17.0,94,0.08,,,-99.99,,2013-03-04 16:42:00,
2013-03-04 09:52:00,17.0,15.0,-100.00,WSW,254,12.0,18.0,93,0.04,,,-99.99,,2013-03-04 16:52:00,
2013-03-04 10:02:00,15.0,13.0,-100.00,WSW,251,16.0,22.0,92,0.07,,,-99.99,,2013-03-04 17:02:00,
2013-03-04 10:11:00,15.0,13.0,-100.00,West,265,17.0,22.0,92,0.10,,,-99.99,,2013-03-04 17:11:00,
2013-03-04 10:22:00,14.0,12.0,-100.00,West,263,14.0,19.0,92,-99.99,,,-99.99,,2013-03-04 17:22:00,
2013-03-04 10:32:00,15.0,13.0,-100.00,West,265,12.0,19.0,93,0.08,,,-99.99,,2013-03-04 17:32:00,
2013-03-04 10:42:00,14.0,13.0,-100.00,West,264,12.0,16.0,92,0.17,,,-99.99,,2013-03-04 17:42:00,
2013-03-04 10:52:00,15.0,13.0,-100.00,WSW,251,10.0,14.0,93,0.10,,,-99.99,,2013-03-04 17:52:00,
2013-03-04 11:01:00,15.0,13.0,-100.00,SW,222,14.0,20.0,92,0.03,,,-99.99,,2013-03-04 18:01:00,
2013-03-04 11:11:00,14.0,12.0,-100.00,SSW,210,16.0,22.0,90,0.00,,,-99.99,,2013-03-04 18:11:00,
2013-03-04 11:21:00,14.0,12.0,-100.00,SSW,206,19.0,24.0,91,0.01,,,-99.99,,2013-03-04 18:21:00,
2013-03-04 11:32:00,14.0,12.0,-100.00,SSW,209,19.0,24.0,90,0.04,,,-99.99,,2013-03-04 18:32:00,
2013-03-04 11:42:00,14.0,11.0,-100.00,SSW,209,21.0,25.0,87,0.00,,,-99.99,,2013-03-04 18:42:00,
2013-03-04 11:52:00,15.0,12.0,-100.00,SSW,210,19.0,24.0,88,0.01,,,-99.99,,2013-03-04 18:52:00,
2013-03-04 12:01:00,15.0,11.0,-100.00,SSW,205,22.0,28.0,85,0.00,,,-99.99,,2013-03-04 19:01:00,
2013-03-04 12:11:00,15.0,11.0,-100.00,SSW,205,22.0,27.0,84,0.00,,,-99.99,,2013-03-04 19:11:00,
2013-03-04 12:21:00,15.0,9.0,-100.00,SSW,210,22.0,27.0,77,0.00,,,-99.99,,2013-03-04 19:21:00,
2013-03-04 12:32:00,15.0,9.0,-100.00,SW,216,21.0,28.0,74,0.00,,,-99.99,,2013-03-04 19:32:00,
2013-03-04 12:42:00,16.0,8.0,-100.00,SW,219,21.0,28.0,71,0.00,,,-99.99,,2013-03-04 19:42:00,
2013-03-04 12:51:00,16.0,9.0,-100.00,SW,223,22.0,30.0,73,0.00,,,-99.99,,2013-03-04 19:51:00,
2013-03-04 13:01:00,15.0,8.0,-100.00,SSW,213,17.0,23.0,73,0.00,,,-99.99,,2013-03-04 20:01:00,
2013-03-04 13:11:00,15.0,6.0,-100.00,SSW,209,19.0,27.0,69,0.00,,,-99.99,,2013-03-04 20:11:00,
2013-03-04 13:22:00,15.0,6.0,-100.00,SSW,209,19.0,27.0,69,0.00,,,-99.99,,2013-03-04 20:22:00,
2013-03-04 13:32:00,16.0,6.0,-100.00,SW,216,18.0,29.0,66,0.00,,,-99.99,,2013-03-04 20:32:00,
2013-03-04 13:42:00,16.0,8.0,-100.00,SSW,212,17.0,23.0,71,0.00,,,-99.99,,2013-03-04 20:42:00,
2013-03-04 13:52:00,16.0,8.0,-100.00,SSW,212,14.0,19.0,70,0.00,,,-99.99,,2013-03-04 20:52:00,
2013-03-04 14:01:00,16.0,8.0,-100.00,SSW,206,15.0,22.0,70,0.00,,,-99.99,,2013-03-04 21:01:00,
2013-03-04 14:11:00,16.0,8.0,-100.00,SSW,210,16.0,22.0,69,0.00,,,-99.99,,2013-03-04 21:11:00,
2013-03-04 14:21:00,16.0,5.0,-100.00,SW,230,20.0,26.0,61,0.00,,,-99.99,,2013-03-04 21:21:00,
2013-03-04 14:32:00,17.0,6.0,-100.00,SW,222,17.0,22.0,63,0.00,,,-99.99,,2013-03-04 21:32:00,
2013-03-04 14:42:00,15.0,7.0,-100.00,SW,217,17.0,22.0,68,0.00,,,-99.99,,2013-03-04 21:42:00,
2013-03-04 14:52:00,16.0,6.0,-100.00,SSW,212,17.0,24.0,65,0.00,,,-99.99,,2013-03-04 21:52:00,
2013-03-04 15:01:00,17.0,6.0,-100.00,SSW,202,20.0,26.0,61,0.00,,,-99.99,,2013-03-04 22:01:00,
2013-03-04 15:12:00,16.0,6.0,-100.00,SSW,199,21.0,26.0,63,0.00,,,-99.99,,2013-03-04 22:12:00,
2013-03-04 15:22:00,16.0,7.0,-100.00,SSW,199,19.0,23.0,67,0.00,,,-99.99,,2013-03-04 22:22:00,
2013-03-04 15:32:00,16.0,8.0,-100.00,SSW,202,18.0,23.0,71,0.00,,,-99.99,,2013-03-04 22:32:00,
2013-03-04 15:42:00,17.0,9.0,-100.00,SSW,196,19.0,23.0,70,0.00,,,-99.99,,2013-03-04 22:42:00,
2013-03-04 16:11:00,17.0,8.0,-100.00,SW,220,17.0,22.0,68,0.00,,,-99.99,,2013-03-04 23:11:00,
2013-03-04 16:21:00,16.0,6.0,-100.00,SW,215,17.0,22.0,65,0.00,,,-99.99,,2013-03-04 23:21:00,
2013-03-04 16:32:00,17.0,7.0,-100.00,SSW,203,17.0,23.0,64,0.00,,,-99.99,,2013-03-04 23:32:00,
2013-03-04 16:42:00,17.0,7.0,-100.00,SSW,200,19.0,24.0,64,0.00,,,-99.99,,2013-03-04 23:42:00,
2013-03-04 16:53:00,-999.0,-99.9,-100.00,SSW,206,16.0,21.0,-999,-99.99,,,-99.99,,2013-03-04 23:53:00,
2013-03-04 17:01:00,16.0,6.0,-100.00,SSW,208,15.0,20.0,64,0.00,,,-99.99,,2013-03-05 00:01:00,
2013-03-04 17:11:00,17.0,7.0,-100.00,SW,215,14.0,19.0,65,0.00,,,-99.99,,2013-03-05 00:11:00,
2013-03-04 17:21:00,16.0,6.0,-100.00,SW,215,14.0,19.0,65,0.00,,,-99.99,,2013-03-05 00:21:00,
2013-03-04 17:32:00,16.0,7.0,-100.00,SSW,210,11.0,14.0,68,-99.99,,,-99.99,,2013-03-05 00:32:00,
2013-03-04 17:51:00,13.0,6.0,-100.00,South,185,9.0,12.0,72,-99.99,,,-99.99,,2013-03-05 00:51:00,
2013-03-04 18:01:00,11.0,5.0,-100.00,South,179,7.0,9.0,74,0.00,,,-99.99,,2013-03-05 01:01:00,
2013-03-04 18:12:00,10.0,4.0,-100.00,South,181,7.0,9.0,76,0.00,,,-99.99,,2013-03-05 01:12:00,
2013-03-04 18:21:00,9.0,3.0,-100.00,South,181,6.0,7.0,76,0.00,,,-99.99,,2013-03-05 01:21:00,
2013-03-04 18:33:00,-999.0,-99.9,-100.00,South,188,6.0,7.0,-999,-99.99,,,-99.99,,2013-03-05 01:33:00,
2013-03-04 18:41:00,11.0,4.0,-100.00,SSW,195,9.0,12.0,73,0.00,,,-99.99,,2013-03-05 01:41:00,
2013-03-04 18:51:00,12.0,5.0,-100.00,SSW,202,8.0,12.0,74,0.00,,,-99.99,,2013-03-05 01:51:00,
2013-03-04 19:01:00,8.0,2.0,-100.00,SSE,167,4.0,7.0,76,0.00,,,-99.99,,2013-03-05 02:01:00,
2013-03-04 19:11:00,8.0,2.0,-100.00,SSE,160,5.0,9.0,78,0.00,,,-99.99,,2013-03-05 02:11:00,
2013-03-04 19:21:00,7.0,2.0,-100.00,SSE,165,6.0,7.0,79,0.00,,,-99.99,,2013-03-05 02:21:00,
2013-03-04 19:32:00,7.0,2.0,-100.00,South,174,6.0,7.0,79,0.00,,,-99.99,,2013-03-05 02:32:00,
2013-03-04 20:02:00,9.0,2.0,-100.00,SSE,155,10.0,12.0,74,0.00,,,-99.99,,2013-03-05 03:02:00,
2013-03-04 20:12:00,8.0,1.0,-100.00,SSE,157,11.0,14.0,72,0.00,,,-99.99,,2013-03-05 03:12:00,
2013-03-04 20:22:00,8.0,2.0,-100.00,South,179,7.0,11.0,74,0.00,,,-99.99,,2013-03-05 03:22:00,
2013-03-04 20:32:00,9.0,2.0,-100.00,South,175,7.0,11.0,72,0.00,,,-99.99,,2013-03-05 03:32:00,
2013-03-04 20:42:00,10.0,2.0,-100.00,South,172,7.0,11.0,71,0.00,,,-99.99,,2013-03-05 03:42:00,
2013-03-04 20:51:00,10.0,3.0,-100.00,South,176,9.0,12.0,71,0.00,,,-99.99,,2013-03-05 03:51:00,
2013-03-04 21:01:00,12.0,4.0,-100.00,SSE,165,12.0,16.0,69,0.00,,,-99.99,,2013-03-05 04:01:00,
2013-03-04 21:12:00,-999.0,-99.9,-100.00,SSE,162,13.0,17.0,-999,-99.99,,,-99.99,,2013-03-05 04:12:00,
2013-03-04 21:21:00,13.0,4.0,-100.00,SSE,168,12.0,18.0,68,0.00,,,-99.99,,2013-03-05 04:21:00,
2013-03-04 21:32:00,13.0,4.0,-100.00,South,171,12.0,16.0,68,0.00,,,-99.99,,2013-03-05 04:32:00,
2013-03-04 21:42:00,13.0,4.0,-100.00,South,169,12.0,16.0,67,0.00,,,-99.99,,2013-03-05 04:42:00,
2013-03-04 21:51:00,11.0,4.0,-100.00,South,182,9.0,14.0,70,0.00,,,-99.99,,2013-03-05 04:51:00,
2013-03-04 22:01:00,12.0,4.0,-100.00,South,175,10.0,16.0,68,0.00,,,-99.99,,2013-03-05 05:01:00,
2013-03-04 22:11:00,12.0,4.0,-100.00,South,175,10.0,16.0,68,0.00,,,-99.99,,2013-03-05 05:11:00,
2013-03-04 22:22:00,12.0,4.0,-100.00,SSE,158,11.0,15.0,68,0.00,,,-99.99,,2013-03-05 05:22:00,
2013-03-04 22:31:00,12.0,3.0,-100.00,SSE,161,11.0,12.0,69,0.00,,,-99.99,,2013-03-05 05:31:00,
2013-03-04 22:42:00,11.0,3.0,-100.00,South,172,9.0,15.0,70,0.00,,,-99.99,,2013-03-05 05:42:00,
2013-03-04 22:52:00,10.0,3.0,-100.00,SSE,168,8.0,12.0,71,0.00,,,-99.99,,2013-03-05 05:52:00,
2013-03-04 23:01:00,12.0,4.0,-100.00,SSE,168,9.0,14.0,70,0.00,,,-99.99,,2013-03-05 06:01:00,
2013-03-04 23:11:00,13.0,5.0,-100.00,SSE,164,11.0,16.0,68,0.00,,,-99.99,,2013-03-05 06:11:00,
2013-03-04 23:22:00,13.0,5.0,-100.00,SSE,167,12.0,17.0,69,0.00,,,-99.99,,2013-03-05 06:22:00,
2013-03-04 23:32:00,-999.0,-99.9,-100.00,SSE,161,14.0,19.0,-999,-99.99,,,-99.99,,2013-03-05 06:32:00,
2013-03-04 23:41:00,14.0,5.0,-100.00,SSE,161,15.0,18.0,67,0.00,,,-99.99,,2013-03-05 06:41:00,
2013-03-04 23:52:00,13.0,4.0,-100.00,SSE,158,16.0,20.0,68,0.00,,,-99.99,,2013-03-05 06:52:00,